Location: La Brionne
(46.1728°N, 1.7849°E)
Time: 06:58:17
(UTC+00:00)

Cosmos 2034 Rocket - Pass Details

Date: 16 June 2021
Orbit: 957 x 1001 km, 82.9° (Epoch: 31 July)

Event Time Altitude Azimuth Distance (km) Brightness Sun altitude
Rises 22:57:52 0° 355° (N) 3,674 8.6 -19.3°
Reaches altitude 10° 23:00:29 10° 1° (N) 2,717 7.5 -19.4°
Maximum altitude 23:06:30 49° 76° (ENE) 1,220 4.5 -19.6°
Enters shadow 23:09:29 28° 135° (SE) 1,713 4.8 -19.7°
